Miscellaneous Local Product
Issued by NWS Hastings, NE

Home | Current Version | Previous Version | Graphics & Text | Print | Product List | Glossary On
Versions: 1 2 3 4 5 6 7 8 9 10 11 12 13 14 15 16 17 18 19 20 21 22 23 24 25 26 27 28 29 30 31 32 33 34 35 36 37 38 39 40 41 42 43 44 45 46 47 48 49 50
000
AXUS43 KGID 220410
MISGRI

GID CWA HOURLY WEATHER ROUNDUP
NATIONAL WEATHER SERVICE HASTINGS NE
1100 PM CDT MON JUL 21 2014

NOTE: "FAIR" INDICATES FEW OR NO CLOUDS BELOW 12,000 FEET WITH NO
SIGNIFICANT WEATHER AND/OR OBSTRUCTIONS TO VISIBILITY.

...SOUTH CENTRAL NEBRASKA...

CITY           SKY/WX    TMP DP  RH WIND       PRES   REMARKS
GRAND ISLAND   MOCLDY    88  73  61 S16       29.92R HX  95
HASTINGS       PTCLDY    86  70  58 S9        29.94R HX  90
KEARNEY        MOCLDY    82  73  74 SW10      29.96R
ORD            PTCLDY    73  70  90 SW3       29.88R
YORK           MOCLDY    84  73  70 S10       29.91R HX  91
AURORA         MOCLDY    84  74  71 SW9       29.92R HX  92
LEXINGTON      CLEAR     78  66  67 S8        29.97R
HOLDREGE       MOCLDY    82  71  69 S5        29.98R
HEBRON         PTCLDY    88  68  51 S10G17    29.93R HX  91

...NEBRASKA PANHANDLE...

CITY           SKY/WX    TMP DP  RH WIND       PRES   REMARKS
CHADRON        PTCLDY    90  47  22 N10       29.98R
ALLIANCE       PTCLDY    72  52  49 S5        30.01R
SCOTTSBLUFF    CLEAR     71  58  63 E7        30.02R
SIDNEY         PTCLDY    79  49  34 E13       30.10R

...WESTERN AND NORTH CENTRAL NEBRASKA...

CITY           SKY/WX    TMP DP  RH WIND       PRES   REMARKS
VALENTINE      PTCLDY    81  61  50 SW10      29.90R
AINSWORTH      PTCLDY    79  59  49 S7        29.90S
ONEILL         CLEAR     78  68  70 SW6       29.87R
BROKEN BOW     PTCLDY    73  66  78 CALM      29.94R
IMPERIAL       CLEAR     80  60  50 S10       30.04R
NORTH PLATTE   PTCLDY    79  59  50 W7        30.00R
MCCOOK         PTCLDY    78  63  59 S6        29.99R

...EASTERN NEBRASKA...

CITY           SKY/WX    TMP DP  RH WIND       PRES   REMARKS
NORFOLK        MOCLDY    84  77  79 S9        29.84R HX  94
SO SIOUX CITY  MOCLDY    82  78  88 SE9       29.81R HX  91
TEKAMAH        CLOUDY    83  78  85 S6        29.83R HX  93
COLUMBUS       CLOUDY    90  72  55 SW14      29.87R HX  96
ALBION         MOCLDY    80  73  79 CALM      29.88R
OMAHA EPPLEY   CLOUDY    87  76  69 SE13      29.85S HX  97
OFFUTT AFB     CLOUDY    84  80  87 SE2       29.86S HX  98
MILLARD        CLOUDY    86  76  72 SE5       29.86R HX  96
LINCOLN        MOCLDY    91  69  48 SW18      29.87R HX  96
NEBRASKA CITY  PTCLDY    82  73  74 S12       29.88S
BEATRICE       PTCLDY    82  71  70 S14       29.91R
FALLS CITY     PTCLDY    85  74  69 S14G21    29.90S HX  92

...NORTHERN KANSAS...

CITY           SKY/WX    TMP DP  RH WIND       PRES   REMARKS
GOODLAND       CLEAR     74  62  66 S16       30.09R
HILL CITY      CLOUDY    85  66  53 W9        29.97R
NORTON         CLEAR     82  61  47 SW7       29.97R
PHILLIPSBURG   CLEAR     88  70  55 S12       29.95R HX  92
SMITH CENTER   CLEAR     86  68  54 S12       29.96R
HAYS           CLOUDY    84  63  48 S18       29.95F
RUSSELL        CLOUDY    84  71  65 S16       29.94F
CONCORDIA      CLOUDY    88  69  53 S17       29.94R HX  92
SALINA         CLOUDY    87  70  56 S10       29.97R HX  92
TOPEKA         CLEAR     86  75  69 S12       29.97S HX  95



USA.gov is the U.S. government's official web portal to all federal, state and local government web resources and services.